Flag for U.S.A. Weather past 2 weeks in Augusta, Maine, U.S.A.

Now
56 °F

Clear.


Feels Like: 54 °F
Forecast: 57 / 69 °F
Wind: 7 mph from Southwest

Location: Augusta State Airport

Current Time: Sep 21, 2014 at 4:36:58 AM

Latest Report: Sep 21, 2014 at 3:53 AM


Visibility: 10 mi

Pressure: 29.99 "Hg

Humidity: 93%

Dew point: 54 °F

Location of AugustaLocation

Historic Weather in Augusta — Graph

°F

Augusta temperature yesterday

Maximum temperature yesterday: 60 °F (at 3:53 PM)
Minimum temperature yesterday: 36 °F (at 5:53 AM)
Average temperature yesterday: 50 °F

Past Weeks' High & Low Weather Summary

 TemperatureHumidityPressure
High83 °F (Sep 6, 3:53 PM)100% (Sep 9, 7:03 AM)30.44 "Hg (Sep 9, 7:03 AM)
Low36 °F (Sep 19, 6:53 AM)25% (Sep 19, 4:53 PM)29.70 "Hg (Sep 6, 3:53 PM)
Average56 °F75%30.12 "Hg
* Reported Sep 6 2:53 AM — Sep 21 2:53 AM, Augusta, Weather by CustomWeather, © 2014

Note: Actual official high and low records may vary slightly from our data, if they occured in-between our weather recording intervals... More about our weather records

Advertising

Augusta weather history for previous 24 hours

 ConditionsComfort  
Time TempWeatherWind HumidityBarometerVisibility
2:53 AM
Sep 21
56 °FClear.8 mph93%30.01 "Hg10 mi
1:53 AM57 °FClear.8 mph90%30.03 "Hg10 mi
12:53 AM57 °FOvercast.6 mph90%30.04 "Hg10 mi
11:53 PM
Sep 20
57 °FClear.7 mph90%30.05 "Hg10 mi
10:53 PM58 °FPassing clouds.8 mph87%30.06 "Hg10 mi
9:53 PM57 °FClear.6 mph90%30.08 "Hg10 mi
8:53 PM57 °FPassing clouds.6 mph87%30.10 "Hg10 mi
7:53 PM58 °FOvercast.6 mph84%30.11 "Hg10 mi
6:53 PM58 °FOvercast.8 mph81%30.11 "Hg10 mi
5:53 PM58 °FOvercast.8 mph81%30.13 "Hg10 mi
4:53 PM58 °FOvercast.8 mph75%30.14 "Hg10 mi
3:53 PM60 °FOvercast.10 mph69%30.14 "Hg10 mi
2:53 PM59 °FOvercast.10 mph67%30.17 "Hg10 mi
1:53 PM59 °FOvercast.12 mph67%30.18 "Hg10 mi
8:53 AM49 °FScattered clouds.9 mph71%30.30 "Hg10 mi
7:53 AM42 °FSunny.7 mph79%30.32 "Hg10 mi
6:53 AM38 °FClear.7 mph86%30.35 "Hg10 mi
5:53 AM36 °FClear.5 mph92%30.34 "Hg10 mi
4:53 AM39 °FClear.5 mph79%30.37 "Hg10 mi
Weather by CustomWeather, © 2014

See weather overviewHow to use our weather pages